Tracking 35275 objects as of 8-Sep-2026
HD Live streaming from Space Station
objects crossing your sky now

ARIANE 5 DEB (SYLDA)

Track ARIANE 5 DEB (SYLDA) now!
10-day predictions


NORAD ID: 44478
Int'l Code: 2019-049D
Launch date: August 6, 2019
Source: France (FR)
Launch site: FRENCH GUIANA (FRGUI)

Note: This is SATELLITE DEBRIS
Your satellite tracking list
Your tracking list is empty




NASA's NSSDC Master Catalog

Two Line Element Set (TLE):
1 44478U 19049D   26174.88386675  .00577358  13045-4  41641-2 0  9991
2 44478   4.3311  27.8720 1850456 250.4265  88.7432 11.92896958126975
Source of the keplerian elements: AFSPC